Regional Weather Roundup
Issued by NWS

Home | Current Version | Previous Version | Text Only | Print | Product List | Glossary On
Versions: 1 2 3 4 5 6 7 8 9 10 11 12 13 14 15 16 17 18 19 20 21 22 23 24 25 26 27 28 29 30 31 32 33 34 35 36 37 38 39 40 41 42 43 44 45 46 47 48 49 50
000
ASUS42 KFFC 240203
RWRGA
WEATHER ROUNDUP FOR GEORGIA
NATIONAL WEATHER SERVICE PEACHTREE CITY GA
900 PM EST SUN NOV 23 2014

NOTE: "FAIR" INDICATES FEW OR NO CLOUDS BELOW 12,000 FEET WITH NO
SIGNIFICANT WEATHER AND/OR OBSTRUCTIONS TO VISIBILITY.

* = USE WITH CAUTION. THE STATIONS MARKED WITH AN ASTERISK MAY NOT
REPORT WEATHER SUCH AS PRECIPITATION, FOG, OR THUNDER AND ARE NOT
QUALITY CONTROLLED BY NWS.

THE REMARK "TC" DENOTES TEMPERATURE READING IN DEGREES CELSIUS.

GAZ001>058-240300-
NORTH GEORGIA

CITY           SKY/WX    TMP DP  RH WIND       PRES   REMARKS
ATLANTA        MOCLDY    61  57  87 S14G21    29.72R
ATHENS         MOCLDY    54  53  97 VRB6      29.74S
CHAMBLEE       CLOUDY    59  56  89 S10G18    29.72R
PEACHTREE CITY CLOUDY    62  58  86 VRB3      29.74R
ROME           CLOUDY    56  55  97 CALM      29.66R
WEST ATLANTA   CLOUDY    62  55  77 SW14G24   29.71R
GAINESVILLE    CLOUDY    50  49  96 SE5       29.76R
CARTERSVILLE   MOCLDY    60  56  86 S7        29.70R


CITY           SKY/WX    TMP DP  RH WIND       PRES   REMARKS
DALTON*        CLOUDY    59  57  94 SE9       29.66R
MARIETTA       MOCLDY    60  58  94 S8        29.72R
$$

GAZ059>098-102>109-240300-
CENTRAL GEORGIA

CITY           SKY/WX    TMP DP  RH WIND       PRES   REMARKS
AUGUSTA-BUSH   CLOUDY    66  62  87 SW6       29.76F
AUGUSTA-DANIEL CLOUDY    66  62  87 S8G18     29.77F
COLUMBUS       CLOUDY    61  59  93 S7        29.76R
MACON          MOCLDY    64  63  96 SW10G18   29.77S
ROBINS AFB     CLOUDY    65  62  91 S9        29.77F


CITY           SKY/WX    TMP DP  RH WIND       PRES   REMARKS
LAGRANGE*      CLOUDY    64  61  88 S9        29.74R
SYLVANIA*      RAIN      66  65  96 S6        29.87S
MILLEDGEVILLE* MOCLDY    63  63 100 CALM      29.76S
$$

GAZ099>101-110>166-240300-
SOUTH GEORGIA

CITY           SKY/WX    TMP DP  RH WIND       PRES   REMARKS
SAVANNAH       TSTM      71  66  84 W24G39    29.92R VSB 1/2
VALDOSTA       TSTM      65  64  97 S8        29.85F
ALMA           CLOUDY    67  64  90 S8        29.85F
ST SIMONS      CLOUDY    66  66 100 SW3       29.91R FOG
FT STEWART     HVY RAIN  68  66  94 W7        29.89S FOG
ALBANY         CLOUDY    65  63  93 SW9       29.84R
HUNTER AFB     LGT RAIN  69  69 100 SW13G32   29.91R
MOODY AFB      TSTM      64  64 100 VRB5      29.86R FOG
BRUNSWICK      CLOUDY    72  68  88 NW13      29.93R


CITY           SKY/WX    TMP DP  RH WIND       PRES   REMARKS
BAINBRIDGE*    RAIN      64  64 100 S7        29.82S
MOULTRIE*      TSTM      64  64 100 SE5       29.84F
VIDALIA*       CLOUDY    64  64 100 S7        29.83R
WAYCROSS*      CLOUDY    69  68  98 S6        29.86S
DOUGLAS*       CLOUDY    68  64  88 S5        29.85S THUNDER
$$



USA.gov is the U.S. government's official web portal to all federal, state and local government web resources and services.